IZ1HKE-13 Weather Reports


time (UTC)temp
C
wind
direction
speed
KPH
gust
KPH
rain 1hr
cm
rain 24hr
cm
rain mn
cm
humidity
%
barometer
mb
20260506205645 16 132 14.5 25.7 0.00 0.00 0.76 70 1015.9
20260506204517 16 144 20.9 24.1 0.00 0.00 0.76 70 1016.0
20260506203337 16 201 8.0 20.9 0.00 0.00 0.76 70 1015.9
20260506202210 16 180 14.5 19.3 0.00 0.00 0.76 71 1016.0
20260506201042 15 220 6.4 14.5 0.00 0.00 0.76 72 1015.8
20260506195914 15 174 17.7 19.3 0.00 0.00 0.76 72 1015.7
20260506194746 16 226 9.7 30.6 0.00 0.00 0.76 71 1015.5
20260506193619 16 202 11.3 22.5 0.00 0.00 0.76 71 1015.3
20260506192451 16 77 19.3 22.5 0.00 0.00 0.76 70 1015.2
20260506191323 16 162 8.0 27.4 0.00 0.00 0.76 70 1015.0
20260506190156 16 132 11.3 29.0 0.00 0.00 0.76 70 1015.0
20260506185029 16 160 12.9 27.4 0.00 0.00 0.76 70 1014.9
20260506183901 16 210 11.3 30.6 0.00 0.00 0.76 71 1014.6
20260506182733 16 192 16.1 27.4 0.00 0.00 0.76 70 1014.5
20260506181606 16 168 14.5 37.0 0.00 0.00 0.76 70 1014.2
20260506180439 16 207 11.3 43.5 0.00 0.00 0.76 70 1014.1
20260506175311 16 90 11.3 32.2 0.00 0.00 0.76 70 1013.8
20260506174144 16 120 24.1 30.6 0.00 0.00 0.76 70 1013.7
20260506173016 16 196 20.9 37.0 0.00 0.00 0.76 68 1013.5
20260506171849 17 210 35.4 41.8 0.00 0.00 0.76 68 1013.2
20260506170709 17 175 20.9 37.0 0.00 0.00 0.76 67 1013.2
20260506165541 16 210 8.0 22.5 0.00 0.00 0.76 66 1013.1
20260506164414 17 269 19.3 24.1 0.00 0.00 0.76 65 1013.3
20260506163246 17 214 24.1 35.4 0.00 0.00 0.76 65 1013.2
20260506162119 17 204 20.9 32.2 0.00 0.00 0.76 63 1013.1
20260506160951 17 204 11.3 46.7 0.00 0.00 0.76 63 1013.1
20260506155824 18 144 16.1 27.4 0.00 0.00 0.76 60 1013.2
20260506154644 18 138 8.0 25.7 0.00 0.00 0.76 59 1013.1
20260506153516 18 188 17.7 29.0 0.00 0.00 0.76 59 1013.1
20260506152349 18 150 14.5 25.7 0.00 0.00 0.76 60 1012.9
20260506151221 18 180 11.3 32.2 0.00 0.00 0.76 59 1012.9
20260506150054 18 221 29.0 35.4 0.00 0.00 0.76 60 1013.1
20260506144926 18 226 22.5 30.6 0.00 0.00 0.76 58 1013.2
20260506143759 18 246 6.4 37.0 0.00 0.00 0.76 57 1013.4
20260506142631 18 120 25.7 33.8 0.00 0.00 0.76 58 1013.5
20260506141504 18 204 14.5 38.6 0.00 0.00 0.76 57 1013.4
20260506140336 18 222 24.1 43.5 0.00 0.00 0.76 57 1013.5
20260506135209 19 96 16.1 35.4 0.00 0.00 0.76 58 1013.6
20260506134041 18 186 32.2 43.5 0.00 0.00 0.76 60 1013.7
20260506132914 18 187 8.0 32.2 0.00 0.00 0.76 61 1013.7
20260506131746 18 181 40.2 46.7 0.00 0.00 0.76 59 1013.6
20260506130606 19 205 14.5 35.4 0.00 0.00 0.76 58 1013.6
20260506125439 19 182 19.3 24.1 0.00 0.00 0.76 56 1013.6
20260506124311 20 114 17.7 33.8 0.00 0.00 0.76 59 1013.7
20260506123144 20 224 22.5 24.1 0.00 0.00 0.76 58 1013.6
20260506122016 19 95 14.5 37.0 0.00 0.00 0.76 60 1013.7
20260506120849 20 186 12.9 27.4 0.00 0.00 0.76 61 1013.5
20260506115721 20 95 14.5 30.6 0.00 0.00 0.76 58 1013.5
20260506114554 19 115 16.1 29.0 0.00 0.00 0.76 58 1013.6
20260506113426 19 154 16.1 35.4 0.00 0.00 0.76 59 1013.7
20260506112258 19 78 16.1 27.4 0.00 0.00 0.76 62 1013.7
20260506111131 19 146 29.0 33.8 0.00 0.00 0.76 63 1013.8
20260506110004 19 174 35.4 38.6 0.00 0.00 0.76 62 1013.9
20260506104836 20 161 4.8 22.5 0.00 0.00 0.76 62 1013.8
20260506103708 19 218 11.3 35.4 0.00 0.00 0.76 63 1013.8
20260506102541 20 120 14.5 19.3 0.00 0.00 0.76 59 1013.8
20260506101413 19 174 11.3 22.5 0.00 0.00 0.76 62 1013.8
20260506100246 19 197 12.9 25.7 0.00 0.00 0.76 65 1013.9
20260506095119 19 186 16.1 20.9 0.00 0.00 0.76 62 1013.8
20260506093951 20 121 6.4 14.5 0.00 0.00 0.76 69 1013.9
20260506092824 20 209 0.0 3.2 0.00 0.00 0.76 67 1013.9
20260506091656 18 197 1.6 4.8 0.00 0.00 0.76 73 1013.9
20260506090529 18 11 1.6 4.8 0.00 0.00 0.76 78 1014.0
20260506085401 18 342 0.0 1.6 0.00 0.00 0.76 79 1014.1
20260506084234 17 157 3.2 4.8 0.00 0.00 0.76 79 1014.1
20260506083106 17 77 3.2 3.2 0.00 0.00 0.76 82 1014.1
20260506081939 16 306 0.0 0.0 0.00 0.00 0.76 90 1014.3
20260506080811 16 262 0.0 3.2 0.00 0.00 0.76 91 1014.4
20260506073349 12 272 0.0 0.0 0.03 0.00 0.76 99 1014.8
20260506072221 12 303 0.0 1.6 0.08 0.00 0.76 99 1014.6
20260506071054 12 350 0.0 3.2 0.15 0.00 0.76 99 1014.2
20260506062504 12 186 0.0 3.2 0.28 0.00 0.71 99 1014.3
20260506061336 12 24 8.0 8.0 0.20 0.00 0.66 99 1014.1
20260506060209 12 88 0.0 0.0 0.15 0.00 0.61 99 1014.5
20260506050439 12 293 0.0 0.0 0.00 0.00 0.46 99 1014.6
20260506044144 11 305 0.0 4.8 0.00 0.00 0.46 99 1014.8
20260506043016 11 102 0.0 0.0 0.00 0.00 0.46 99 1015.1
20260506041849 11 197 0.0 3.2 0.00 0.00 0.46 99 1015.4
20260506040721 11 185 0.0 0.0 0.00 0.00 0.46 99 1015.6
20260506035554 11 312 0.0 4.8 0.00 0.00 0.46 99 1015.5
20260506034427 11 348 0.0 0.0 0.00 0.00 0.46 99 1015.5
20260506033259 11 342 0.0 3.2 0.00 0.00 0.46 99 1015.6
20260506032132 11 336 0.0 3.2 0.03 0.00 0.46 99 1015.5
20260506031004 11 336 0.0 0.0 0.13 0.00 0.46 99 1015.7
20260506025837 11 336 0.0 3.2 0.23 0.00 0.46 99 1015.7
20260506024709 11 312 0.0 4.8 0.36 0.00 0.46 99 1015.8
20260506023542 11 344 0.0 6.4 0.43 0.00 0.46 99 1016.1
20260506022414 11 330 0.0 3.2 0.43 0.00 0.46 99 1016.4
20260506021247 11 144 0.0 0.0 0.33 0.00 0.36 99 1016.7
20260506020107 11 171 0.0 4.8 0.23 0.00 0.25 99 1016.9
20260506014939 11 204 3.2 6.4 0.10 0.00 0.13 99 1017.2
20260506013812 11 127 3.2 3.2 0.03 0.00 0.03 99 1017.4
20260506012644 11 203 0.0 0.0 0.03 0.00 0.03 99 1017.3
20260506011517 11 138 0.0 0.0 0.03 0.00 0.03 99 1017.3
20260506010349 11 180 0.0 0.0 0.03 0.00 0.03 99 1017.6
20260506005222 11 186 8.0 8.0 0.03 0.00 0.03 99 1017.8
20260506004054 10 185 0.0 0.0 0.03 0.00 0.03 99 1017.8
20260506002927 10 133 0.0 3.2 0.00 0.00 0.00 99 1017.5
20260506001759 10 140 0.0 0.0 0.00 0.00 0.00 99 1017.8
20260506000632 10 155 0.0 0.0 0.00 0.00 0.00 99 1018.0
20260505235452 10 155 0.0 0.0 0.00 0.00 0.00 99 1018.2
20260505234324 10 154 0.0 0.0 0.00 0.00 0.00 99 1018.2
20260505233157 10 154 0.0 0.0 0.00 0.00 0.00 99 1018.2
20260505232029 11 142 0.0 0.0 0.00 0.00 0.00 99 1018.3
20260505230902 11 142 0.0 0.0 0.00 0.00 0.00 99 1018.4
20260505225735 10 159 0.0 6.4 0.00 0.00 1.65 99 1018.4
20260505224607 11 144 0.0 4.8 0.00 0.00 1.65 99 1018.5
20260505223440 11 162 0.0 4.8 0.00 0.00 1.65 99 1018.7
20260505222312 11 160 4.8 6.4 0.00 0.00 1.65 99 1018.8
20260505221145 11 174 0.0 3.2 0.00 0.00 1.65 99 1018.7
20260505220017 11 126 0.0 3.2 0.00 0.00 1.65 99 1018.7
20260505214850 11 156 4.8 4.8 0.00 0.00 1.65 99 1019.1
20260505213722 11 164 0.0 4.8 0.00 0.00 1.65 99 1019.0
20260505212554 11 143 0.0 1.6 0.00 0.00 1.65 99 1019.2
20260505211427 12 145 0.0 3.2 0.00 0.00 1.65 99 1019.2